Weather home | Your neighborhood | Marine | Radar | Hurricane | Almanac

Daily weather history


Statistical History for Wednesday, September 13, 2017

St. Petersburg Airport, FL


  Actual Average Record
Temperature
Mean Temperature -  
Max Temperature 88 °F 93 °F (1997)
Min Temperature 75 °F 68 °F (1956)
Cooling Degree Days    
Growing Degree Days 30 (Base - )  
Moisture
Dew Point   
Average Humidity    
Maximum Humidity    
Minimum Humidity    
Precipitation
Precipitation - - ()
Wind
Wind Speed   
Max Wind Speed   
Max Gust Speed   
Visibility   
Events   
Averages and records for this station are not official NWS values.
Key: T is trace of precipitation, MM is missing value
Source: NWS Daily Summary
Seasonal Weather Averages
Time(EDT)TemperatureDew PointHumidity Sea Level Pressure Visibility Wind DirectionWind SpeedGust SpeedPrecipitationEventsConditions
12:53 AM 73.9 °F 71.1 °F 91% 29.91 in 10.0 miles Calm Calm - N/A   Clear
1:53 AM 73.9 °F 71.1 °F 91% 29.91 in 10.0 miles Calm Calm - N/A   Clear
2:53 AM 73.0 °F 71.1 °F 93% 29.90 in 10.0 miles South 3.5 mph - N/A   Clear
3:53 AM 73.0 °F 70.0 °F 90% 29.90 in 10.0 miles SSE 4.6 mph - N/A   Clear
4:53 AM 72.0 °F 70.0 °F 93% 29.91 in 10.0 miles Calm Calm - N/A   Clear
5:53 AM 73.0 °F 71.1 °F 93% 29.91 in 10.0 miles Calm Calm - N/A   Clear
6:53 AM 73.0 °F 70.0 °F 90% 29.93 in 10.0 miles ESE 5.8 mph - N/A   Clear
7:53 AM 75.0 °F 72.0 °F 90% 29.95 in 10.0 miles SE 5.8 mph - N/A   Clear
8:53 AM 78.1 °F 73.0 °F 84% 29.96 in 10.0 miles SE 6.9 mph - N/A   Clear
9:53 AM 82.0 °F 73.0 °F 74% 29.96 in 10.0 miles SE 8.1 mph - N/A   Clear
10:53 AM 84.0 °F 72.0 °F 67% 29.97 in 10.0 miles SSE 5.8 mph - N/A   Clear
11:53 AM 86.0 °F 72.0 °F 63% 29.97 in 10.0 miles SE 9.2 mph - N/A   Partly Cloudy
12:53 PM 87.1 °F 71.1 °F 59% 29.96 in 10.0 miles ENE 8.1 mph - N/A   Clear
1:53 PM 89.1 °F 70.0 °F 53% 29.95 in 10.0 miles ENE 8.1 mph - N/A   Clear
2:53 PM 89.1 °F 68.0 °F 50% 29.93 in 10.0 miles South 8.1 mph - N/A   Clear
3:53 PM 88.0 °F 70.0 °F 55% 29.91 in 10.0 miles SSE 9.2 mph - N/A   Clear
4:53 PM 88.0 °F 66.9 °F 49% 29.91 in 10.0 miles South 9.2 mph - N/A   Clear
5:53 PM 86.0 °F 68.0 °F 55% 29.91 in 10.0 miles SW 8.1 mph - N/A   Clear
6:53 PM 82.9 °F 71.1 °F 67% 29.91 in 10.0 miles West 6.9 mph - N/A   Clear
7:53 PM 82.0 °F 73.0 °F 74% 29.92 in 10.0 miles SSW 4.6 mph - N/A   Clear
8:53 PM 81.0 °F 73.0 °F 77% 29.93 in 10.0 miles WSW 3.5 mph - N/A   Clear
9:53 PM 80.1 °F 73.9 °F 81% 29.94 in 10.0 miles SSW 3.5 mph - N/A   Clear
10:53 PM 79.0 °F 73.9 °F 84% 29.95 in 10.0 miles Calm Calm - N/A   Clear
11:53 PM 79.0 °F 73.9 °F 84% 29.96 in 10.0 miles Calm Calm - N/A   Clear
ADVERTISEMENT
Enter city or zip code to search weather conditions:


  • 490 First Avenue South
  • St. Petersburg, FL 33701
  • 727-893-8111